Weather History for KNCA - October, 2013

Change the Weather History Date:

Tuesday, October 1, 2013

  Actual Average Record
Temperature  
Mean Temperature 65 °F -  
Max Temperature 80 °F 77 °F 86 °F (2002)
Min Temperature 51 °F 58 °F 46 °F (2001)
Growing Degree Days 15 (Base 50)    
Moisture  
Dew Point 54 °F    
Average Humidity 74    
Maximum Humidity 97    
Minimum Humidity 40    
Precipitation  
Precipitation 0.00 in - - ()
Sea Level Pressure  
Sea Level Pressure 30.09 in    
Wind  
Wind Speed 1 mph (ENE)    
Max Wind Speed 9 mph    
Max Gust Speed -    
Visibility 10 miles    
Events      
Averages and records for this station are not official NWS values.
T = Trace of Precipitation, MM = Missing Value Source: NWS Daily Summary

Daily Weather History Graph

Daily Weather History Graph

Search for Another Location

Airport or City:

Trip Planner

Search our weather history database for the weather conditions in past years. The results will help you decide how hot, cold, wet, or windy it might be!

Date:

Astronomy

Oct. 01, 2013 Rise Set
Actual Time 7:04 AM EDT 6:53 PM EDT
Civil Twilight 6:39 AM EDT 7:18 PM EDT
Nautical Twilight 6:10 AM EDT 7:47 PM EDT
Astronomical Twilight 5:40 AM EDT 8:17 PM EDT
Moon 3:44 AM EDT (10/1) 4:50 PM EDT (10/1)
Length of Visible Light 12h 39m
Length of Day
11h 48m
Waning Crescent, 12% of the Moon is Illuminated
Oct 1
Waning Crescent
Oct 4
New
Oct 11
First Quarter
Oct 18
Full
Oct 26
Last Quarter

Hourly Weather History & Observations

Time (EDT) Temp. Dew Point Humidity Pressure Visibility Wind Dir Wind Speed Gust Speed Precip Events Conditions
12:56 AM 55.9 °F 53.1 °F 90% 30.07 in 10.0 mi Calm Calm - N/A   Clear
1:56 AM 54.0 °F 52.0 °F 93% 30.06 in 10.0 mi Calm Calm - N/A   Clear
2:56 AM 53.1 °F 52.0 °F 96% 30.06 in 10.0 mi Calm Calm - N/A   Clear
3:56 AM 53.1 °F 51.1 °F 93% 30.06 in 10.0 mi Calm Calm - N/A   Clear
4:56 AM 52.0 °F 50.0 °F 93% 30.06 in 10.0 mi Calm Calm - N/A   Clear
5:56 AM 51.1 °F 50.0 °F 96% 30.08 in 10.0 mi Calm Calm - N/A   Clear
6:56 AM 51.1 °F 50.0 °F 96% 30.10 in 10.0 mi Calm Calm - N/A   Clear
7:56 AM 54.0 °F 52.0 °F 93% 30.12 in 9.0 mi Calm Calm - N/A   Clear
8:56 AM 62.1 °F 55.0 °F 78% 30.14 in 10.0 mi Calm Calm - N/A   Clear
9:56 AM 70.0 °F 55.0 °F 59% 30.14 in 10.0 mi Calm Calm - N/A   Clear
10:56 AM 73.0 °F 54.0 °F 51% 30.13 in 10.0 mi North 4.6 mph - N/A   Clear
11:56 AM 75.9 °F 54.0 °F 46% 30.12 in 10.0 mi Variable 3.5 mph - N/A   Clear
12:56 PM 77.0 °F 52.0 °F 42% 30.10 in 10.0 mi NNE 5.8 mph - N/A   Clear
1:56 PM 79.0 °F 53.1 °F 40% 30.08 in 10.0 mi Variable 3.5 mph - N/A   Clear
2:56 PM 79.0 °F 53.1 °F 40% 30.06 in 10.0 mi NE 6.9 mph - N/A   Clear
3:56 PM 79.0 °F 54.0 °F 42% 30.05 in 10.0 mi NE 4.6 mph - N/A   Clear
4:56 PM 79.0 °F 55.0 °F 44% 30.05 in 10.0 mi East 5.8 mph - N/A   Clear
5:56 PM 73.0 °F 57.9 °F 59% 30.06 in 10.0 mi South 9.2 mph - N/A   Clear
6:56 PM 68.0 °F 57.9 °F 70% 30.07 in 10.0 mi SSE 4.6 mph - N/A   Clear
7:56 PM 64.9 °F 59.0 °F 81% 30.09 in 10.0 mi Calm Calm - N/A   Clear
8:56 PM 62.1 °F 60.1 °F 93% 30.10 in 10.0 mi Calm Calm - N/A   Clear
9:56 PM 61.0 °F 59.0 °F 93% 30.11 in 10.0 mi Calm Calm - N/A   Clear
10:56 PM 61.0 °F 59.0 °F 93% 30.11 in 10.0 mi Calm Calm - N/A   Clear
11:56 PM 57.9 °F 57.0 °F 97% 30.11 in 10.0 mi Calm Calm - N/A   Clear